星链-5621 (STARLINK-5621 )

导读

STARLINK-5621是美国太空探索技术公司SpaceX星链星座中的一颗卫星,于2023年1月31日发射升空,属于星链网络的第二代测试卫星。星链计划旨在构建全球卫星互联网星座,为全球各地提供高速低延迟的宽带网络服务,该卫星的发射进一步拓展了星链星座的覆盖规模与服务能力。

基本信息
目录编号:
55434
目录名称:
STARLINK-5621
国际标识:
2023-014AV
轨道中心:
EARTH
卫星名称:
星链-5621
卫星全名:
星链-5621 (STARLINK-5621 )
卫星状态:
在轨 (已飞行1320 天)
发射日期:
2023-01-31 UTC
国别 :
美国 (US)
星等 :
--
该卫星已列入 空间交会检测服务 Space Conjunction Data Service (SCDS) ,当前飞行风险评估等级: 无高风险
轨道信息
数据来源 国际轨道数据 AOE轨道数据
星历时间 2026-09-12T14:05:21+0800
7小时前
查看轨道信息
2026-09-06T06:00:00+0800
6天前
查看轨道信息
半长轴 6950.168km 6950.097km
偏心率 0.0003382 0.0003283
轨道倾角 70.001° 70.002°
近地点辐角 270.147° 275.480°
升交点赤经 354.085° 10.060°
平近点角 89.930° 112.401°
近地点 569.68km 569.678km
远地点 574.382km 574.242km
周期 96.106分钟 96.105分钟
每日圈数 14.983383 14.983613
详细信息
固有亮度:
5
最大亮度:
2.5
卫星平台:
Starlink v1.5
覆盖范围:
全球
运营商:
太空探索技术公司
运营商所在国:
美国
制造商(研发单位):
太空探索技术公司
制造商所在国:
美国
使用方式:
暂无
卫星简介
星链(Starlink)计划是由太空探索技术公司(SpaceX)提出的一个巨型低轨卫星互联网星座项目,计划在2019年至2024年间在太空搭建由约1.2万颗卫星组成的“星链”网络,其中1584颗将部署在地球上空550千米处的近地轨道,并从2020年开始工作。该卫星仍在工作。
2D轨道图
3D轨道图
轨道高度分析图
轨道倾角分析图
轨道综合分析图
查看轨道综合分析图
交会数据列表
事件ID 空间交会对象 最接近时刻(TCA) 交会距离 交会风险概率(CRP) 交会风险指数(CRI) 操作
CDM_260913-142205-543405-890824
2026-09-13T
14:22:02+0000
2.128 km
极远距离
1.826161E-6 低风险 0.4
与全量物体交会距离演化趋势
与全量物体交会风险概率演化趋势